This demonstration page uses our WeatherBlox Daily Observations layout. Learn more.

39.92423, -83.80882

Hourly Observations for June 20, 2019

Temp ( °F °C ) Dew Point ( °F °C ) Humidity (%) Winds ( mph kmh ) Pressure ( in mb ) Visibility ( mi km ) Precip ( " mm )
12:30 am 00:30 Mostly Cloudy 68 20 68 20 100 100 S 5 7 29.63 1003 10 16.0934 0 0.0254
12:38 am 00:38 Partly Cloudy with Light Rain 68 20 68 20 100 100 S 3 6 29.63 1003 8 12.87472 0 0.0254
12:56 am 00:56 Mostly Cloudy with Light Rain 68 20 68 20 100 100 S 5 7 29.64 1004 6 9.65604 0 0.0254
1:09 am 01:09 Cloudy with Light Rain 68 20 68 20 100 100 SSW 3 6 29.62 1003 5 8.0467 0 0.0254
1:40 am 01:40 Cloudy with Light Rain 68 20 68 20 100 100 S 5 7 29.61 1003 7 11.26538 0.01 0.254
1:56 am 01:56 Mostly Cloudy 68 20 68 20 100 100 S 5 7 29.62 1003 8 12.87472 0.01 0.254
2:36 am 02:36 Mostly Cloudy 68 20 68 20 100 100 S 7 11 29.59 1002 10 16.0934 0 0.0254
2:56 am 02:56 Cloudy 68 20 68 20 100 100 SSW 6 9 29.6 1002 9 14.48406 0 0.0254
3:56 am 03:56 Cloudy with Mist and Fog 68 20 68 20 100 100 SSW 10 17 29.58 1002 5 8.0467 0 0
4:56 am 04:56 Cloudy with Light Rain 68 20 68 20 100 100 SSW 9 15 29.58 1002 8 12.87472 0 0.0254
5:56 am 05:56 Cloudy with Mist and Fog 67 19.4 67 19.4 100 100 SW 12 19 29.58 1002 5 8.0467 0 0.0254
6:56 am 06:56 Cloudy with Mist and Fog 68 20 68 20 100 100 SW 10 17 29.6 1002 4 6.43736 0 0
7:05 am 07:05 Cloudy with Mist and Fog 68 20 68 20 100 100 SW 10 17 29.58 1002 4 6.43736 0 0
7:32 am 07:32 Cloudy with Mist and Fog 68 20 68 20 100 100 SSW 10 17 29.59 1002 6 9.65604 0 0
7:41 am 07:41 Cloudy with Mist and Fog 68 20 68 20 100 100 SW 9 15 29.59 1002 5 8.0467 0 0
7:56 am 07:56 Cloudy with Mist and Fog 68 20 68 20 100 100 SW 10 17 29.6 1002 6 9.65604 0 0
8:56 am 08:56 Cloudy 69 20.6 69 20.6 100 100 SSW 9 15 29.6 1003 10 16.0934 0 0
9:56 am 09:56 Cloudy 69 20.6 69 20.6 100 100 SSW 9 15 29.61 1003 10 16.0934 0 0
10:16 am 10:16 Cloudy 70 21 70 21 100 100 SSW 9 15 29.59 1002 9 14.48406 0 0
10:28 am 10:28 Cloudy 70 21 70 21 100 100 SSW 7 11 29.59 1002 10 16.0934 0 0
10:56 am 10:56 Cloudy 70 21.1 69 20.6 97 97 SSW 10 17 29.61 1003 10 16.0934 0 0
11:56 am 11:56 Cloudy 70 21.1 69 20.6 97 97 SSW 15 24 29.6 1002 9 14.48406 0 0
12:52 pm 12:52 Cloudy 72 22 70 21 94 94 SSW 13 20 29.56 1001 10 16.0934 0 0
12:56 pm 12:56 Cloudy 72 22.2 69 20.6 91 91 SSW 12 19 29.58 1002 10 16.0934 0 0
1:56 pm 13:56 Cloudy 73 22.8 68 20 84 84 SW 18 30 29.56 1001 10 16.0934 0 0
2:56 pm 14:56 Cloudy 71 21.7 68 20 90 90 W 22 35 29.57 1002 10 16.0934 0.04 1.016
3:11 pm 15:11 Cloudy with Light Rain 70 21 66 19 88 88 W 22 35 29.57 1001 6 9.65604 0.01 0.254
3:35 pm 15:35 Cloudy 68 20 66 19 94 94 W 24 39 29.58 1002 10 16.0934 0.01 0.254
3:56 pm 15:56 Cloudy 67 19.4 65 18.3 93 93 W 23 37 29.61 1003 10 16.0934 0.01 0.254
4:19 pm 16:19 Cloudy 66 19 64 18 94 94 W 20 31 29.61 1003 10 16.0934 0 0
4:38 pm 16:38 Cloudy with Mist and Fog 66 19 64 18 94 94 W 16 26 29.62 1003 6 9.65604 0 0
4:56 pm 16:56 Cloudy with Light Rain 66 18.9 64 17.8 93 93 W 16 26 29.63 1003 10 16.0934 0 0.0254
5:05 pm 17:05 Cloudy 66 19 64 18 94 94 W 23 37 29.62 1003 10 16.0934 0 0
5:56 pm 17:56 Cloudy 66 18.9 65 18.3 96 96 W 22 35 29.65 1004 9 14.48406 0 0.0254
6:56 pm 18:56 Cloudy with Light Rain 65 18.3 64 17.8 97 97 WNW 16 26 29.68 1005 9 14.48406 0 0.0254
7:28 pm 19:28 Cloudy with Light Rain 64 18 64 18 100 100 WNW 10 17 29.69 1005 9 14.48406 0 0.0254
7:56 pm 19:56 Cloudy with Light Rain 64 17.8 64 17.8 100 100 NW 17 28 29.72 1007 7 11.26538 0.01 0.254
8:08 pm 20:08 Cloudy with Light Rain 64 18 64 18 100 100 NW 12 19 29.72 1006 10 16.0934 0 0.0254
8:20 pm 20:20 Cloudy with Light Rain 64 18 64 18 100 100 NNW 15 24 29.73 1007 10 16.0934 0 0.0254
8:49 pm 20:49 Cloudy with Light Rain 63 17 63 17 100 100 NW 15 24 29.74 1007 10 16.0934 0 0.0254
8:56 pm 20:56 Cloudy 63 17.2 63 17.2 100 100 NW 13 20 29.76 1008 10 16.0934 0 0.0254
9:42 pm 21:42 Cloudy 63 17 63 17 100 100 NW 9 15 29.76 1008 10 16.0934 0 0
9:56 pm 21:56 Cloudy 63 17.2 63 17.2 100 100 WNW 9 15 29.78 1009 10 16.0934 0 0
10:41 pm 22:41 Mostly Cloudy 63 17 63 17 100 100 W 8 13 29.8 1009 10 16.0934 0 0
10:56 pm 22:56 Mostly Cloudy 63 17.2 63 17.2 100 100 W 10 17 29.83 1010 10 16.0934 0 0
11:56 pm 23:56 Cloudy 63 17.2 62 16.7 97 97 NW 10 17 29.83 1010 10 16.0934 0 0

Powered by AerisWeather